When you browse on this site, cookies collect data to enhance your experience and personalize the content and advertising you see.
Visit our Privacy Policy to learn more. By continuing to use the site, you agree to this use of cookies and data.
  • In Latvia
  • List of Countries
  • For 7 days
  • Water Temperature
  • Satellite Maps
  • Weather Map
  • Weather Widgets
  • user-avatar
    Login

    Hourly Weather Teresin

    Today, 16 January, Wednesday

    Time Temperature Precipitation Wind Pressure Humidity
    00:00 -1°C° 0.5 mm 9 mps 728 mmHg 90%
    01:00 -1°C° 0.5 mm 9 mps 728 mmHg 90%
    02:00 0°C° 0.2 mm 9 mps 728 mmHg 91%
    03:00 0°C° 0.2 mm 9 mps 729 mmHg 92%
    04:00 0°C° 0.2 mm 8 mps 729 mmHg 92%
    05:00 0°C° 0.5 mm 8 mps 729 mmHg 93%
    06:00 0°C° 0.5 mm 7 mps 730 mmHg 94%
    07:00 -1°C° 0.5 mm 6 mps 730 mmHg 95%
    08:00 -1°C° 0.9 mm 6 mps 731 mmHg 95%
    09:00 0°C° 0.9 mm 5 mps 731 mmHg 96%
    10:00 0°C° 0.9 mm 5 mps 732 mmHg 96%
    11:00 +1°C° 0.4 mm 6 mps 732 mmHg 96%
    12:00 +1°C° 0.4 mm 6 mps 732 mmHg 95%
    13:00 +1°C° 0.4 mm 6 mps 732 mmHg 94%
    14:00 +1°C° 0 mm 6 mps 733 mmHg 94%
    15:00 +1°C° 0 mm 5 mps 733 mmHg 93%
    16:00 0°C° 0 mm 4 mps 733 mmHg 92%
    17:00 0°C° 0 mm 4 mps 733 mmHg 91%
    18:00 0°C° 0 mm 4 mps 733 mmHg 90%
    19:00 -1°C° 0 mm 4 mps 733 mmHg 88%
    20:00 -1°C° 0 mm 4 mps 733 mmHg 88%
    21:00 -1°C° 0 mm 4 mps 733 mmHg 87%
    22:00 0°C° 0 mm 3 mps 733 mmHg 87%
    23:00 0°C° 0 mm 3 mps 733 mmHg 86%

    Tomorrow, 17 January, Thursday

    Time Temperature Precipitation Wind Pressure Humidity
    00:00 -1°C° 0 mm 3 mps 732 mmHg 85%
    01:00 -1°C° 0 mm 3 mps 732 mmHg 85%
    02:00 -1°C° 0 mm 3 mps 732 mmHg 83%
    03:00 0°C° 0 mm 3 mps 731 mmHg 81%
    04:00 0°C° 0 mm 3 mps 731 mmHg 79%
    05:00 -1°C° 0 mm 4 mps 731 mmHg 76%
    06:00 -1°C° 0 mm 4 mps 730 mmHg 72%
    07:00 -1°C° 0 mm 5 mps 730 mmHg 69%
    08:00 0°C° 0 mm 5 mps 730 mmHg 69%
    09:00 +1°C° 0 mm 5 mps 731 mmHg 70%
    10:00 +1°C° 0 mm 4 mps 731 mmHg 71%
    11:00 +2°C° 0 mm 5 mps 731 mmHg 72%
    12:00 +2°C° 0 mm 5 mps 730 mmHg 74%
    13:00 +2°C° 0 mm 5 mps 730 mmHg 76%
    14:00 +2°C° 0 mm 5 mps 730 mmHg 78%
    15:00 +1°C° 0 mm 4 mps 730 mmHg 81%
    16:00 0°C° 0 mm 4 mps 730 mmHg 83%
    17:00 0°C° 0 mm 4 mps 730 mmHg 83%
    18:00 0°C° 0 mm 4 mps 730 mmHg 82%
    19:00 0°C° 0 mm 5 mps 730 mmHg 81%
    20:00 +1°C° 0 mm 6 mps 730 mmHg 81%
    21:00 +1°C° 0 mm 6 mps 730 mmHg 80%
    22:00 0°C° 0 mm 7 mps 730 mmHg 80%
    23:00 0°C° 0 mm 7 mps 730 mmHg 80%

    Day after tomorrow, 18 January, Friday

    Time Temperature Precipitation Wind Pressure Humidity
    00:00 0°C° 0 mm 7 mps 731 mmHg 80%
    01:00 -1°C° 0 mm 7 mps 731 mmHg 80%
    02:00 -1°C° 0 mm 6 mps 731 mmHg 79%
    03:00 -1°C° 0 mm 5 mps 731 mmHg 78%
    04:00 -2°C° 0 mm 5 mps 732 mmHg 77%
    05:00 -2°C° 0 mm 5 mps 733 mmHg 78%
    06:00 -2°C° 0 mm 5 mps 733 mmHg 78%
    07:00 -4°C° 0 mm 5 mps 734 mmHg 79%
    08:00 -4°C° 0 mm 6 mps 735 mmHg 77%
    09:00 -3°C° 0 mm 7 mps 736 mmHg 74%
    10:00 -3°C° 0 mm 7 mps 736 mmHg 72%
    11:00 -3°C° 0.1 mm 7 mps 737 mmHg 69%
    12:00 -3°C° 0.1 mm 7 mps 737 mmHg 66%
    13:00 -3°C° 0.1 mm 7 mps 738 mmHg 63%
    14:00 -3°C° 0 mm 6 mps 738 mmHg 65%
    15:00 -4°C° 0 mm 5 mps 739 mmHg 68%
    16:00 -3°C° 0 mm 4 mps 739 mmHg 70%
    17:00 -4°C° 0 mm 3 mps 740 mmHg 73%
    18:00 -4°C° 0 mm 3 mps 740 mmHg 75%
    19:00 -3°C° 0 mm 2 mps 741 mmHg 77%
    20:00 -5°C° 0 mm 3 mps 741 mmHg 77%
    21:00 -5°C° 0 mm 3 mps 742 mmHg 77%
    22:00 -5°C° 0 mm 3 mps 742 mmHg 78%
    23:00 -4°C° 0 mm 2 mps 742 mmHg 77%

    19 January, Saturday

    Time Temperature Precipitation Wind Pressure Humidity
    00:00 -4°C° 0 mm 2 mps 742 mmHg 76%
    01:00 -4°C° 0 mm 2 mps 742 mmHg 75%
    02:00 -4°C° 0 mm 2 mps 742 mmHg 74%
    03:00 -4°C° 0 mm 2 mps 742 mmHg 73%
    04:00 -4°C° 0 mm 2 mps 741 mmHg 72%
    05:00 -4°C° 0 mm 2 mps 741 mmHg 70%
    06:00 -2°C° 0 mm 1 mps 741 mmHg 69%
    07:00 -3°C° 0 mm 1 mps 742 mmHg 68%
    08:00 -2°C° 0 mm 1 mps 742 mmHg 64%
    09:00 -2°C° 0 mm 1 mps 742 mmHg 61%
    10:00 -1°C° 0 mm 1 mps 741 mmHg 58%
    11:00 -1°C° 0 mm 1 mps 741 mmHg 55%
    12:00 0°C° 0 mm 1 mps 741 mmHg 52%
    13:00 0°C° 0 mm 1 mps 741 mmHg 50%
    14:00 0°C° 0 mm 1 mps 740 mmHg 53%
    15:00 -2°C° 0 mm 0 mps 740 mmHg 56%
    16:00 -2°C° 0 mm 0 mps 740 mmHg 60%
    17:00 -2°C° 0 mm 0 mps 740 mmHg 61%
    18:00 -2°C° 0 mm 0 mps 740 mmHg 62%
    19:00 -2°C° 0 mm 1 mps 740 mmHg 62%
    20:00 -3°C° 0 mm 0 mps 740 mmHg 64%
    21:00 -3°C° 0 mm 0 mps 740 mmHg 66%
    22:00 -3°C° 0 mm 0 mps 740 mmHg 67%
    23:00 -3°C° 0 mm 0 mps 740 mmHg 68%

    20 January, Sunday

    Time Temperature Precipitation Wind Pressure Humidity
    00:00 -3°C° 0 mm 0 mps 740 mmHg 69%
    01:00 -3°C° 0 mm 0 mps 740 mmHg 70%
    02:00 -4°C° 0 mm 0 mps 739 mmHg 70%
    03:00 -4°C° 0 mm 0 mps 739 mmHg 70%
    04:00 -4°C° 0 mm 0 mps 739 mmHg 69%
    05:00 -3°C° 0 mm 1 mps 739 mmHg 68%
    06:00 -3°C° 0 mm 1 mps 740 mmHg 67%
    07:00 -3°C° 0 mm 1 mps 740 mmHg 67%
    08:00 -3°C° 0 mm 1 mps 740 mmHg 64%
    09:00 -2°C° 0 mm 1 mps 741 mmHg 62%
    10:00 -2°C° 0 mm 1 mps 741 mmHg 59%
    11:00 -3°C° 0 mm 2 mps 741 mmHg 60%
    12:00 -2°C° 0 mm 2 mps 741 mmHg 61%
    13:00 -2°C° 0 mm 3 mps 741 mmHg 61%
    14:00 -2°C° 0 mm 3 mps 741 mmHg 67%
    15:00 -2°C° 0 mm 3 mps 741 mmHg 72%
    16:00 -4°C° 0 mm 3 mps 742 mmHg 78%
    17:00 -4°C° 0 mm 3 mps 742 mmHg 79%
    18:00 -4°C° 0 mm 3 mps 743 mmHg 81%
    19:00 -4°C° 0 mm 2 mps 743 mmHg 82%
    20:00 -5°C° 0 mm 3 mps 744 mmHg 80%
    21:00 -5°C° 0 mm 3 mps 744 mmHg 78%
    22:00 -5°C° 0 mm 3 mps 744 mmHg 76%
    23:00 -5°C° 0 mm 3 mps 745 mmHg 76%

    21 January, Monday

    Time Temperature Precipitation Wind Pressure Humidity
    00:00 -6°C° 0 mm 3 mps 745 mmHg 76%
    01:00 -6°C° 0 mm 3 mps 745 mmHg 77%
    02:00 -6°C° 0 mm 3 mps 745 mmHg 78%
    03:00 -6°C° 0 mm 3 mps 746 mmHg 79%
    04:00 -7°C° 0 mm 3 mps 746 mmHg 81%
    05:00 -6°C° 0 mm 2 mps 746 mmHg 82%
    06:00 -6°C° 0 mm 2 mps 747 mmHg 82%
    07:00 -6°C° 0 mm 2 mps 747 mmHg 83%
    08:00 -6°C° 0 mm 2 mps 748 mmHg 80%
    09:00 -5°C° 0 mm 2 mps 748 mmHg 77%
    10:00 -5°C° 0 mm 2 mps 748 mmHg 74%
    11:00 -4°C° 0 mm 2 mps 748 mmHg 71%
    12:00 -2°C° 0 mm 1 mps 748 mmHg 67%
    13:00 -1°C° 0 mm 1 mps 748 mmHg 63%
    14:00 -1°C° 0 mm 1 mps 748 mmHg 65%
    15:00 -3°C° 0 mm 0 mps 748 mmHg 67%
    16:00 -3°C° 0 mm 0 mps 748 mmHg 68%
    17:00 -3°C° 0 mm 0 mps 748 mmHg 70%
    18:00 -3°C° 0 mm 1 mps 748 mmHg 71%
    19:00 -3°C° 0 mm 1 mps 748 mmHg 72%
    20:00 -3°C° 0 mm 1 mps 748 mmHg 73%
    21:00 -3°C° 0 mm 1 mps 748 mmHg 74%
    22:00 -6°C° 0 mm 2 mps 748 mmHg 75%
    23:00 -6°C° 0 mm 2 mps 747 mmHg 75%
    Show more